CZ-6A DEB, 61466

Orbit data source: Space-Track

CZ-6A DEB, 61466 is space debris in LEO originally from a launch on Tue, 06 Aug 2024 UTC launched from the Taiyaun Space Center, China (TSC). Debris objects in space refer to the collection of defunct objects orbiting the Earth. Examples of debris include non-operational satellites, rocket bodies, and fragments generated from explosions, collisions, or faulty payload assembly.

Loading next visibility...
Identifier
61466, 2024-140ZY
Orbit
LEO
Country
Flag of CNCN / PRC
Related business
Manufacturer
SAST
Mission
Spacecraft
Bus & Motor
Unknown
Mass
Unknown
Launch date (UTC)
2024-08-06 (2 years ago)
Launch vehicle
Unknown
Launch site
Taiyaun Space Center, China (TSC)
Object type
Payload
Rocket body
Debris
Shape & HBR
Unknown shape, 0.1 m
Radar Cross Section
Medium (>0.1 m² and <1 m²)

Expand to show TLE details & history
Last TLE update: 14 hours ago

TLE from 14 hours ago
0 CZ-6A DEB
1 61466U 24140ZY  26171.25981647  .00004084  00000-0  64928-3 0  9991
2 61466  89.0489 272.8894 0115751 216.8540 142.4683 14.67462726 94555
Epoch: 2026-06-20T06:14Z
TLE epoch observation values (Epoch: 2026-06-20T06:14:08.143Z)
Latitude
0.00004°
Longitude
-89.12153°
Altitude
737.35 km
Speed
7.452 km/s
True Right ascension
18h 11m 33s
True Declination
0° 00' 00"
Sunlit
Object was in full shadow at epoch
Visualization orbit readout
Latitude
Unknown
Longitude
Unknown
Altitude
Unknown
Speed
Unknown
Apparent Right ascension
Unknown
Apparent Declination
Unknown
Sunlit
N/A
Visualization observer readout
Local Sidereal Time
07:23:03
Azimuth
Unknown
Elevation
Unknown
Doppler factor
Unknown
Orbital elements
Apogee altitude
747.6 km
Perigee altitude
584.525 km
Semi-major axis
7,044.199 km
Eccentricity
0.01158
Inclination
89.0489°
RAAN
272.8894°
Arg. of periapsis
216.854°
True anomaly
143.26715°
Mean anomaly
142.4683°
Eccentric anomaly
142.86864°
Mean motion
3.6711 °/min
Orbital period
98.06 mins
BSTAR
0.00064928
Loading maneuver chart data...
Computing Atmospheric mass density...
Loading historical data...
Loading historical data...
Loading historical data...
Loading historical data...
Loading historical data...
Loading historical data...
Loading historical data...

Documentation

Showing up to 5 results
|